Content
SEND FEEDBACK

Daily
Averages
Monthly
Summary
United States of America

AGANA, GUAM


Home > North America > United States > Guam
Elevation: 246 feet     Latitude: 13 29N     Longitude: 144 48E

WEATHER
 
SELECT A DAY
Number of Records: 213,057;   Date Range: 1/1/95 - 9/29/14
 
SHARE

PRINT THIS DATA

[ ← Previous Day ]
WEATHER ALMANAC - SEPTEMBER 27, 2013
[ Next Day → ]
[ °C ]   °F
Weather ElementAverageHighLow
Temperature80.9 °F87.8 °F (12:45 pm)75.2 °F (7:36 pm)
Dewpoint77 °F79 °F (7:54 am)75 °F (4:54 pm)
Humidity88.3 %100 % (5:09 am)69 % (10:54 am)
Barometer29.77 in29.82 in (8:29 pm)29.70 in (2:54 pm)
Wind Speed3.4 mph9.2 mph (8:29 pm)
Weather ElementAverage
Visibility7.9 mi
Wind DirectionE (86.9 °)

Weather ElementTotal
Precipitation5.71 in
Cooling Degree Days16.5 (Base 65)
Growing Degree Days31.5 (Base 50)
Averaged from 51 records on September 27, 2013
WEATHER CONDITIONS BREAKOUT
WIND DIRECTION BREAKOUT
WEATHER BY HOUR - SEPTEMBER 27, 2013
[ °C ]   °F
Local TimeTemperatureDewpointHumidityBarometerVisibilityWind DirectionWind SpeedGust SpeedPrecipitationEventsConditions
1:54 AM80.1 °F78.1 °F94 %29.75 in10.0 miCalmScattered Clouds
2:54 AM78.1 °F77.0 °F96 %29.74 in10.0 miCalmClear
3:54 AM77.0 °F75.9 °F96 %29.75 in10.0 miCalmClear
4:54 AM79.0 °F77.0 °F94 %29.75 in10.0 miCalmPartly Cloudy
5:09 AM78.8 °F78.8 °F100 %29.77 in10.0 miCalmMostly Cloudy
5:38 AM78.8 °F77.0 °F94 %29.77 in10.0 miCalmPartly Cloudy
5:54 AM79.0 °F78.1 °F97 %29.75 in10.0 miCalmScattered Clouds
6:11 AM78.8 °F77.0 °F94 %29.78 in4.0 miSSE (150°)4.6 mph0.01 inRainRain
6:43 AM78.8 °F78.8 °F100 %29.79 in10.0 miCalm0.03 inOvercast
6:54 AM79.0 °F78.1 °F97 %29.77 in10.0 miCalm0.03 inRainLight Rain
7:54 AM82.0 °F79.0 °F90 %29.78 in10.0 miCalm0.00 inClear
8:54 AM84.0 °F78.1 °F82 %29.78 in10.0 miCalmScattered Clouds
9:54 AM87.1 °F77.0 °F72 %29.78 in10.0 miSE (140°)3.5 mphScattered Clouds
10:54 AM87.1 °F75.9 °F69 %29.78 in10.0 miVariable3.5 mphScattered Clouds
11:25 AM86.0 °F78.8 °F79 %29.79 in10.0 miNNW (340°)4.6 mphMostly Cloudy
11:54 AM84.9 °F79.0 °F82 %29.75 in10.0 miNNW (340°)6.9 mphOvercast
12:45 PM87.8 °F78.8 °F75 %29.76 in10.0 miVariable5.8 mphMostly Cloudy
12:54 PM86.0 °F78.1 °F77 %29.73 in10.0 miWNW (290°)5.8 mphMostly Cloudy
1:24 PM84.2 °F78.8 °F84 %29.74 in10.0 miWNW (290°)4.6 mphOvercast
1:43 PM84.2 °F78.8 °F84 %29.74 in10.0 miWest (280°)4.6 mphOvercast
1:50 PM84.2 °F78.8 °F84 %29.74 in10.0 miWNW (290°)5.8 mphOvercast
1:54 PM84.9 °F78.1 °F80 %29.72 in10.0 miWNW (290°)5.8 mphOvercast
2:21 PM86.0 °F78.8 °F79 %29.73 in10.0 miWNW (300°)4.6 mphMostly Cloudy
2:28 PM87.8 °F78.8 °F75 %29.73 in10.0 miCalmOvercast
2:54 PM86.0 °F75.9 °F72 %29.70 in10.0 miSE (140°)3.5 mphOvercast
3:20 PM86.0 °F75.2 °F70 %29.73 in10.0 miEast (90°)5.8 mphScattered Clouds
3:54 PM86.0 °F77.0 °F74 %29.71 in10.0 miEast (100°)4.6 mphScattered Clouds
4:54 PM82.0 °F75.0 °F79 %29.72 in10.0 miSSE (150°)4.6 mph0.00 inMostly Cloudy
5:09 PM82.4 °F75.2 °F79 %29.75 in10.0 miCalmThunderstormThunderstorm
5:40 PM82.4 °F75.2 °F79 %29.76 in10.0 miCalmScattered Clouds
5:54 PM82.0 °F75.0 °F79 %29.74 in10.0 miCalmScattered Clouds
6:54 PM80.1 °F75.9 °F87 %29.76 in10.0 miCalmMostly Cloudy
7:06 PM78.8 °F77.0 °F94 %29.79 in2.0 miESE (110°)6.9 mph0.05 inRainHeavy Rain
7:07 PM78.8 °F77.0 °F94 %29.79 in4.0 miESE (110°)6.9 mph0.06 inRainHeavy Rain
7:14 PM78.8 °F77.0 °F94 %29.79 in2.0 miEast (100°)6.9 mph0.20 inRainHeavy Rain
7:19 PM78.8 °F77.0 °F94 %29.79 in1.0 miESE (120°)5.8 mph0.32 inRainHeavy Rain
7:28 PM77.0 °F77.0 °F100 %29.79 in0.8 miNE (50°)4.6 mph0.66 inRainHeavy Rain
7:31 PM77.0 °F77.0 °F100 %29.79 in1.0 miNE (50°)4.6 mph0.80 inRainHeavy Rain
7:36 PM75.2 °F75.2 °F100 %29.79 in1.5 miCalm0.89 inRainHeavy Rain
7:39 PM75.2 °F75.2 °F100 %29.79 in2.0 miCalm0.92 inRainHeavy Rain
7:54 PM77.0 °F75.0 °F94 %29.78 in3.0 miNNE (20°)4.6 mph0.97 inRainRain
8:08 PM78.8 °F77.0 °F94 %29.81 in7.0 miENE (70°)5.8 mph0.03 inRainRain
8:23 PM78.8 °F77.0 °F94 %29.81 in2.5 miNNE (30°)5.8 mph0.13 inRainHeavy Rain
8:29 PM78.8 °F77.0 °F94 %29.82 in4.0 miNE (50°)9.2 mph0.15 inRainRain
8:43 PM78.8 °F77.0 °F94 %29.82 in10.0 miENE (60°)5.8 mph0.16 inMostly Cloudy
8:54 PM78.1 °F77.0 °F96 %29.80 in10.0 miENE (70°)9.2 mph0.16 inMostly Cloudy
9:25 PM78.8 °F75.2 °F89 %29.82 in4.0 miNNE (20°)6.9 mph0.03 inRainRain
9:32 PM77.0 °F75.2 °F94 %29.82 in6.0 miENE (60°)3.5 mph0.05 inRainRain
9:54 PM77.0 °F75.9 °F96 %29.80 in10.0 miCalm0.06 inMostly Cloudy
10:54 PM78.1 °F75.9 °F93 %29.78 in10.0 miESE (120°)4.6 mphMostly Cloudy
11:54 PM77.0 °F75.9 °F96 %29.77 in10.0 miSSW (200°)3.5 mphScattered Clouds
Hourly data recorded from PGUM, located miles away from Agana, Guam







STORIES FROM OUR PARTNERS